QPF
0.00 0.00 0.00 0.00 0.00 0.00 0.00 0.00 0.00 0.00 0.00 0.00 0.00 0.00 0.00 0.00 0.00 0.00 0.00 0.00 0.00 0.00 0.00 0.00 0.00 0.00 0.00 0.00 0.00 0.00 0.00 0.00 0.00 0.00 0.00 0.00 0.00 0.00 0.00 0.00 0.00 0.00 0.00 0.00 0.00
0.00 0.00 0.00 0.00 0.00 0.00 0.00 0.00 0.00 0.00 0.00 0.00 0.00 0.00 0.00 0.00 0.00 0.00 0.00 0.00 0.00 0.00 0.00 0.00 0.00 0.00 0.00 0.00 0.00 0.00 0.00 0.00 0.00 0.00 0.00 0.00 0.00 0.00 0.00 0.00 0.00 0.00 0.00 0.00 0.00
0.02 0.00 0.00 0.00 0.00 0.00 0.00 0.00 0.00 0.00 0.00 0.00 0.00 0.00 0.00 0.00 0.00 0.00 0.00 0.00 0.00 0.00 0.00 0.00 0.00 0.00 0.00 0.00 0.00 0.00 0.00 0.00 0.00 0.00 0.00 0.00 0.00 0.00 0.00 0.00 0.00 0.00 0.00 0.00 0.00
0.01 0.00 0.00 0.00 0.00 0.00 0.00 0.00 0.00 0.00 0.00 0.00 0.00 0.00 0.00 0.00 0.00 0.00 0.00 0.00 0.00 0.00 0.00 0.00 0.00 0.00 0.00 0.00 0.00 0.00 0.00 0.00 0.00 0.00 0.00 0.00 0.00 0.00 0.00 0.00 0.00 0.00 0.00 0.00 0.00
0.00 0.00 0.00 0.00 0.00 0.00 0.00 0.00 0.00 0.00 0.00 0.00 0.00 0.00 0.00 0.00 0.00 0.00 0.00 0.00 0.00 0.00 0.00 0.00 0.00 0.00 0.00 0.00 0.00 0.00 0.00 0.00 0.00 0.00 0.00 0.00 0.00 0.00 0.00 0.00 0.00 0.00 0.00 0.00 0.00
0.00 0.00 0.00 0.00 0.00 0.00 0.00 0.00 0.00 0.00 0.00 0.00 0.00 0.00 0.00 0.00 0.00 0.00 0.00 0.00 0.00 0.00 0.00 0.00 0.00 0.00 0.00 0.00 0.00 0.00 0.00 0.00 0.00 0.00 0.00 0.00 0.00 0.00 0.00 0.00 0.00 0.00 0.00 0.00 0.00
0.00 0.00 0.00 0.00 0.00 0.00 0.00 0.00 0.00 0.00 0.00 0.00 0.00 0.00 0.00 0.00 0.00 0.00 0.00 0.00 0.00 0.00 0.00 0.00 0.00 0.00 0.00 0.00 0.00 0.00 0.00 0.00 0.00 0.00 0.00 0.00 0.00 0.00 0.00 0.00 0.00 0.00 0.00 0.00 0.00
0.00 0.00 0.00 0.00 0.00 0.00 0.00 0.00 0.00 0.00 0.00 0.00 0.00 0.00 0.00 0.00 0.00 0.00 0.00 0.00 0.00 0.00 0.00 0.00 0.00 0.00 0.00 0.00 0.00 0.00 0.00 0.00 0.00 0.00 0.00 0.00 0.00 0.00 0.00 0.00 0.00 0.00 0.00 0.00 0.00
0.00 0.00 0.00 0.00 0.00 0.00 0.00 0.00 0.00 0.00 0.00 0.00 0.00 0.00 0.00 0.00 0.00 0.00 0.00 0.00 0.00 0.00 0.00 0.00 0.00 0.00 0.00 0.00 0.00 0.00 0.00 0.00 0.00 0.00 0.00 0.00 0.00 0.00 0.00 0.00 0.00 0.00 0.00 0.00 0.00
0.00 0.00 0.00 0.00 0.00 0.00 0.00 0.00 0.00 0.00 0.00 0.00 0.00 0.00 0.00 0.00 0.00 0.00 0.00 0.00 0.00 0.00 0.00 0.00 0.00 0.00 0.00 0.00 0.00 0.00 0.00 0.00 0.00 0.00 0.00 0.00 0.00 0.00 0.00 0.00 0.00 0.00 0.00 0.00 0.00
0.00 0.00 0.00 0.00 0.00 0.00 0.00 0.00 0.00 0.00 0.00 0.00 0.00 0.00 0.00 0.00 0.00 0.00 0.00 0.00 0.00 0.00 0.00 0.00 0.00 0.00 0.00 0.00 0.00 0.00 0.00 0.00 0.00 0.00 0.00 0.00 0.00 0.00 0.00 0.00 0.00 0.00 0.00 0.00 0.00
0.00 0.00 0.00 0.00 0.00 0.00 0.00 0.00 0.00 0.00 0.00 0.00 0.00 0.00 0.00 0.00 0.00 0.00 0.00 0.00 0.00 0.00 0.00 0.00 0.00 0.00 0.00 0.00 0.00 0.00 0.00 0.00 0.00 0.00 0.00 0.00 0.00 0.00 0.00 0.00 0.00 0.00 0.00 0.00 0.00
0.00 0.00 0.00 0.00 0.00 0.00 0.00 0.00 0.00 0.00 0.00 0.00 0.00 0.00 0.00 0.00 0.00 0.00 0.00 0.00 0.00 0.00 0.00 0.00 0.00 0.00 0.00 0.00 0.00 0.00 0.00 0.00 0.00 0.00 0.00 0.00 0.00 0.00 0.00 0.00 0.00 0.00 0.00 0.00 0.00
0.00 0.00 0.00 0.00 0.00 0.00 0.00 0.00 0.00 0.00 0.00 0.00 0.00 0.00 0.00 0.00 0.00 0.00 0.00 0.00 0.00 0.00 0.00 0.00 0.00 0.00 0.00 0.00 0.00 0.00 0.00 0.00 0.00 0.00 0.00 0.00 0.00 0.00 0.00 0.00 0.00 0.00 0.00 0.00 0.00
0.00 0.00 0.00 0.00 0.00 0.00 0.00 0.00 0.00 0.00 0.00 0.00 0.00 0.00 0.00 0.00 0.00 0.00 0.00 0.00 0.00 0.00 0.00 0.00 0.00 0.00 0.00 0.00 0.00 0.00 0.00 0.00 0.00 0.00 0.00 0.00 0.00 0.00 0.00 0.00 0.00 0.00 0.00 0.00 0.00
0.00 0.00 0.00 0.00 0.00 0.00 0.00 0.00 0.00 0.00 0.00 0.00 0.00 0.00 0.00 0.00 0.00 0.00 0.00 0.00 0.00 0.00 0.00 0.00 0.00 0.00 0.00 0.00 0.00 0.00 0.00 0.00 0.00 0.00 0.00 0.00 0.00 0.00 0.00 0.00 0.00 0.00 0.00 0.00 0.00
0.00 0.00 0.00 0.00 0.00 0.00 0.00 0.00 0.00 0.00 0.00 0.00 0.00 0.00 0.00 0.00 0.00 0.00 0.00 0.00 0.00 0.00 0.00 0.00 0.00 0.00 0.00 0.00 0.00 0.00 0.00 0.00 0.00 0.00 0.00 0.00 0.00 0.00 0.00 0.00 0.00 0.00 0.00 0.00 0.00
0.00 0.00 0.00 0.00 0.00 0.00 0.00 0.00 0.00 0.00 0.00 0.00 0.00 0.00 0.00 0.00 0.00 0.00 0.00 0.00 0.00 0.00 0.00 0.00 0.00 0.00 0.00 0.00 0.00 0.00 0.00 0.00 0.00 0.00 0.00 0.00 0.00 0.00 0.00 0.00 0.00 0.00 0.00 0.00 0.00
0.00 0.00 0.00 0.00 0.00 0.00 0.00 0.00 0.00 0.00 0.00 0.00 0.00 0.00 0.00 0.00 0.00 0.00 0.00 0.00 0.00 0.00 0.00 0.00 0.00 0.00 0.00 0.00 0.00 0.00 0.00 0.00 0.00 0.00 0.00 0.00 0.00 0.00 0.00 0.00 0.00 0.00 0.00 0.00 0.00
0.00 0.00 0.00 0.00 0.00 0.00 0.00 0.00 0.00 0.00 0.00 0.00 0.00 0.00 0.00 0.00 0.00 0.00 0.00 0.00 0.00 0.00 0.00 0.00 0.00 0.00 0.00 0.00 0.00 0.00 0.00 0.00 0.00 0.00 0.00 0.00 0.00 0.00 0.00 0.00 0.00 0.00 0.00 0.00 0.00
0.00 0.00 0.00 0.00 0.00 0.00 0.00 0.00 0.00 0.00 0.00 0.00 0.00 0.00 0.00 0.00 0.00 0.00 0.00 0.00 0.00 0.00 0.00 0.00 0.00 0.00 0.00 0.00 0.00 0.00 0.00 0.00 0.00 0.00 0.00 0.00 0.00 0.00 0.00 0.00 0.00 0.00 0.00 0.00 0.00
0.00 0.00 0.00 0.00 0.00 0.00 0.00 0.00 0.00 0.00 0.00 0.00 0.00 0.00 0.00 0.00 0.00 0.00 0.00 0.00 0.00 0.00 0.00 0.00 0.00 0.00 0.00 0.00 0.00 0.00 0.00 0.00 0.00 0.00 0.00 0.00 0.00 0.00 0.00 0.00 0.00 0.00 0.00 0.00 0.00
0.00 0.00 0.00 0.00 0.00 0.00 0.00 0.00 0.00 0.00 0.00 0.00 0.00 0.00 0.00 0.00 0.00 0.00 0.00 0.00 0.00 0.00 0.00 0.00 0.00 0.00 0.00 0.00 0.00 0.00 0.00 0.00 0.00 0.00 0.00 0.00 0.00 0.00 0.00 0.00 0.00 0.00 0.00 0.00 0.00
0.00 0.00 0.00 0.00 0.00 0.00 0.00 0.00 0.00 0.00 0.00 0.00 0.00 0.00 0.00 0.00 0.00 0.00 0.00 0.00 0.00 0.00 0.00 0.00 0.00 0.00 0.00 0.00 0.00 0.00 0.00 0.00 0.00 0.00 0.00 0.00 0.00 0.00 0.00 0.00 0.00 0.00 0.00 0.00 0.00
0.00 0.00 0.00 0.00 0.00 0.00 0.00 0.00 0.00 0.00 0.00 0.00 0.00 0.00 0.00 0.00 0.00 0.00 0.00 0.00 0.00 0.00 0.00 0.00 0.00 0.00 0.00 0.00 0.00 0.00 0.00 0.00 0.00 0.00 0.00 0.00 0.00 0.00 0.00 0.00 0.00 0.00 0.00 0.00 0.00
0.00 0.00 0.00 0.00 0.00 0.00 0.00 0.00 0.00 0.00 0.00 0.00 0.00 0.00 0.00 0.00 0.00 0.00 0.00 0.00 0.00 0.00 0.00 0.00 0.00 0.00 0.00 0.00 0.00 0.00 0.00 0.00 0.00 0.00 0.00 0.00 0.00 0.00 0.00 0.00 0.00 0.00 0.00 0.00 0.00
0.00 0.00 0.00 0.00 0.00 0.00 0.00 0.00 0.00 0.00 0.00 0.00 0.00 0.00 0.00 0.00 0.00 0.00 0.00 0.00 0.00 0.00 0.00 0.00 0.00 0.00 0.00 0.00 0.00 0.00 0.00 0.00 0.00 0.00 0.00 0.00 0.00 0.00 0.00 0.00 0.00 0.00 0.00 0.00 0.00
MSLP
1015.75 1015.63 1015.65 1015.73 1015.93 1016.06 1016.20 1016.22 1016.22 1016.13 1015.89 1015.66 1015.44 1015.20 1014.80 1014.42 1013.52 1012.84 1011.93 1012.07 1011.62 1011.28 1010.97 1010.01 1009.23 1008.78 1008.61 1008.55 1008.59 1008.55 1008.73 1008.56 1008.75 1008.92 1009.55 1009.82 1010.06 1010.71 1011.50 1012.34 1013.07 1013.53 1013.85 1013.86 1013.36
1015.82 1015.84 1015.88 1015.97 1016.03 1016.07 1016.17 1016.18 1016.16 1016.02 1015.75 1015.52 1015.34 1015.09 1014.77 1014.51 1013.64 1012.25 1011.96 1011.52 1011.47 1011.30 1010.38 1009.68 1008.93 1008.77 1008.46 1008.39 1008.46 1008.48 1008.80 1009.31 1009.45 1009.59 1009.93 1010.44 1010.96 1011.49 1011.99 1012.75 1013.66 1014.20 1014.23 1014.02 1013.77
1015.80 1015.90 1015.96 1016.02 1015.99 1016.06 1016.12 1016.05 1016.00 1015.88 1015.64 1015.39 1015.24 1015.00 1014.76 1014.55 1013.26 1011.67 1011.63 1011.50 1011.34 1011.16 1010.52 1009.84 1009.36 1008.90 1008.42 1008.49 1008.49 1008.62 1009.15 1009.82 1010.10 1010.45 1010.65 1010.88 1011.72 1012.43 1012.72 1013.88 1014.58 1014.88 1014.75 1014.62 1014.51
1015.81 1015.90 1015.92 1015.97 1015.98 1016.04 1016.03 1015.90 1015.88 1015.72 1015.52 1015.25 1015.17 1014.92 1014.62 1014.13 1012.55 1011.53 1011.40 1011.28 1011.06 1010.81 1010.13 1009.47 1009.03 1008.68 1008.40 1008.34 1008.61 1009.11 1009.73 1009.96 1010.57 1011.00 1011.21 1011.38 1012.08 1013.25 1013.72 1014.57 1015.03 1015.26 1015.04 1014.94 1015.15
1015.88 1015.92 1015.96 1015.95 1015.97 1015.95 1015.85 1015.77 1015.75 1015.51 1015.38 1015.14 1015.10 1014.89 1014.28 1013.11 1011.38 1011.05 1011.13 1010.92 1010.69 1010.25 1009.81 1009.47 1008.96 1008.67 1008.52 1008.41 1008.77 1008.92 1009.92 1010.56 1011.13 1011.39 1011.61 1011.99 1012.68 1013.65 1014.60 1015.03 1015.29 1015.43 1015.37 1015.44 1015.56
1015.81 1015.88 1015.92 1015.92 1015.89 1015.82 1015.72 1015.69 1015.58 1015.33 1015.21 1015.02 1015.03 1014.93 1014.14 1012.19 1010.89 1010.83 1010.89 1010.75 1010.52 1010.06 1009.78 1009.53 1009.38 1009.28 1008.92 1008.91 1009.23 1009.45 1009.93 1010.71 1011.30 1011.71 1012.14 1012.68 1013.48 1013.93 1014.78 1015.03 1015.24 1015.43 1015.68 1015.88 1015.96
1015.76 1015.81 1015.82 1015.80 1015.75 1015.69 1015.72 1015.64 1015.29 1015.11 1014.92 1014.85 1014.98 1014.59 1012.67 1011.43 1010.84 1010.87 1010.74 1010.86 1010.71 1010.41 1010.16 1010.25 1010.07 1009.77 1009.40 1009.42 1009.82 1009.87 1010.33 1010.81 1011.19 1011.68 1012.09 1012.64 1013.48 1013.73 1014.31 1014.88 1015.20 1015.43 1015.78 1016.13 1016.30
1015.64 1015.67 1015.67 1015.63 1015.55 1015.67 1015.61 1015.32 1014.99 1014.80 1014.56 1014.55 1014.72 1014.21 1011.70 1011.03 1010.81 1010.75 1010.66 1010.67 1010.66 1010.61 1010.60 1010.55 1010.37 1009.94 1009.98 1010.02 1010.08 1010.05 1010.27 1010.55 1010.48 1011.21 1012.10 1012.81 1012.68 1013.23 1014.20 1014.71 1015.05 1015.37 1015.84 1016.26 1016.44
1015.40 1015.47 1015.48 1015.45 1015.54 1015.53 1015.31 1014.89 1014.71 1014.42 1014.25 1014.33 1014.23 1012.90 1011.20 1011.16 1010.79 1010.82 1010.77 1010.57 1010.69 1010.64 1010.74 1010.50 1010.45 1010.26 1010.43 1010.34 1010.12 1009.84 1009.84 1009.88 1010.70 1010.98 1011.73 1012.66 1012.74 1013.36 1014.14 1014.56 1014.91 1015.19 1015.71 1016.14 1016.45
1015.17 1015.26 1015.34 1015.44 1015.44 1015.26 1014.83 1014.73 1014.24 1014.04 1013.83 1013.53 1012.53 1011.94 1010.91 1010.60 1010.82 1010.87 1010.84 1010.81 1010.63 1010.62 1010.57 1010.65 1010.59 1010.58 1010.40 1010.31 1010.11 1009.77 1009.91 1009.69 1009.94 1010.91 1011.43 1012.10 1012.53 1013.18 1013.70 1014.23 1014.72 1015.12 1015.42 1015.95 1016.35
1015.00 1015.09 1015.27 1015.31 1015.18 1014.87 1014.82 1014.27 1014.09 1013.60 1012.62 1011.67 1010.81 1010.48 1010.45 1010.76 1010.92 1010.62 1010.82 1010.76 1010.74 1010.73 1010.48 1010.49 1010.65 1010.33 1010.00 1009.91 1010.08 1010.21 1010.26 1010.23 1010.20 1010.94 1011.61 1011.94 1012.09 1012.24 1013.11 1013.91 1014.55 1015.00 1015.17 1015.64 1015.98
1014.88 1014.91 1014.92 1014.92 1014.73 1014.89 1015.00 1012.69 1012.08 1011.93 1011.59 1011.14 1010.79 1010.55 1010.47 1010.47 1010.54 1010.69 1010.80 1010.78 1010.58 1010.39 1010.18 1010.63 1010.40 1010.31 1010.29 1010.43 1010.60 1010.67 1010.64 1010.54 1010.44 1011.13 1011.79 1011.77 1011.58 1011.38 1012.12 1013.14 1014.02 1014.60 1014.91 1015.26 1015.66
1014.60 1014.64 1014.66 1014.57 1014.83 1014.88 1013.21 1011.83 1011.62 1011.31 1010.77 1010.91 1010.49 1010.37 1010.73 1010.77 1010.48 1010.94 1011.08 1010.61 1010.46 1010.26 1010.17 1010.37 1010.46 1010.59 1010.72 1010.77 1010.98 1010.96 1011.09 1011.06 1011.41 1011.53 1011.54 1011.81 1011.34 1010.29 1011.30 1012.61 1013.61 1014.12 1014.59 1014.85 1015.33
1014.29 1014.29 1014.38 1014.75 1015.28 1012.35 1011.78 1011.58 1011.60 1011.46 1010.66 1011.06 1010.60 1010.51 1010.76 1010.72 1011.17 1011.63 1011.63 1011.54 1010.68 1010.50 1010.24 1010.50 1010.93 1010.93 1011.11 1011.21 1011.10 1011.53 1011.90 1011.98 1012.25 1012.53 1012.26 1012.16 1011.49 1010.44 1011.06 1012.39 1013.29 1013.96 1014.35 1014.73 1015.02
1014.16 1014.30 1014.56 1014.81 1013.80 1011.85 1011.91 1011.67 1011.53 1011.30 1010.40 1010.65 1010.56 1010.71 1010.58 1010.85 1011.44 1011.82 1011.92 1011.59 1011.29 1010.88 1011.28 1010.98 1011.03 1011.31 1011.51 1011.59 1011.74 1012.41 1012.71 1012.88 1013.04 1013.11 1013.03 1012.11 1012.26 1010.59 1011.02 1012.27 1012.87 1013.47 1014.11 1014.56 1014.91
1014.12 1014.34 1014.49 1014.19 1013.34 1012.13 1011.83 1011.77 1011.60 1011.26 1010.31 1010.53 1010.48 1010.58 1010.73 1010.90 1011.16 1011.64 1011.66 1011.82 1011.85 1011.67 1011.39 1011.40 1011.81 1011.96 1012.13 1012.39 1012.61 1012.93 1013.16 1013.11 1013.36 1013.50 1013.00 1011.13 1011.59 1010.73 1010.90 1010.99 1011.83 1012.78 1013.61 1014.29 1014.81
1014.04 1014.14 1014.32 1012.95 1012.29 1012.04 1011.90 1011.49 1011.18 1010.30 1010.14 1010.57 1010.28 1010.52 1010.54 1010.59 1011.00 1011.40 1011.48 1011.75 1012.06 1012.12 1011.50 1011.40 1011.77 1012.46 1012.86 1012.88 1013.13 1013.43 1013.58 1013.33 1013.74 1013.56 1012.29 1011.27 1011.49 1010.26 1010.19 1010.44 1010.87 1011.72 1012.89 1013.73 1014.40
1014.06 1014.18 1013.31 1012.65 1012.39 1012.21 1011.83 1011.30 1010.49 1009.59 1009.95 1010.41 1010.39 1010.53 1010.47 1010.50 1011.08 1011.42 1011.75 1012.08 1012.66 1012.93 1012.66 1012.03 1012.51 1012.90 1013.17 1013.21 1013.54 1013.46 1013.63 1013.74 1013.48 1012.86 1012.31 1011.91 1011.22 1010.24 1010.42 1010.71 1011.08 1011.33 1012.37 1013.44 1014.29
1014.17 1013.64 1012.40 1012.40 1012.43 1012.19 1011.71 1010.96 1010.69 1010.39 1010.56 1010.67 1010.86 1010.54 1010.53 1011.01 1011.60 1011.70 1011.99 1012.58 1013.70 1014.02 1014.07 1013.09 1013.46 1013.89 1013.85 1013.92 1014.19 1013.82 1014.12 1014.12 1013.93 1013.00 1012.56 1011.50 1010.71 1011.06 1011.25 1011.54 1011.72 1012.19 1012.87 1013.60 1014.45
1013.81 1012.43 1012.07 1012.20 1012.30 1012.12 1011.63 1010.67 1011.06 1011.58 1011.47 1011.36 1010.81 1010.68 1010.28 1010.87 1011.75 1011.95 1012.29 1014.08 1014.59 1015.20 1015.22 1014.52 1014.29 1014.14 1014.61 1014.67 1014.58 1014.62 1014.81 1014.55 1014.51 1014.06 1013.08 1011.51 1011.17 1011.57 1011.88 1012.18 1012.43 1012.84 1013.57 1014.17 1014.69
1013.65 1011.88 1012.05 1011.99 1012.02 1011.56 1011.07 1011.51 1012.05 1012.44 1012.31 1012.16 1011.62 1011.31 1011.18 1011.29 1011.86 1012.17 1013.28 1015.10 1015.54 1015.81 1015.84 1015.41 1014.96 1015.05 1014.96 1014.64 1014.24 1014.91 1014.72 1014.83 1014.96 1014.70 1014.08 1013.18 1012.26 1011.42 1011.55 1011.87 1012.29 1012.80 1013.23 1013.69 1014.38
1012.55 1011.68 1011.93 1011.89 1011.77 1010.77 1010.95 1011.85 1012.87 1012.81 1012.90 1012.69 1012.62 1012.31 1012.07 1012.18 1012.40 1012.99 1013.98 1015.57 1016.61 1016.64 1016.23 1016.52 1016.12 1015.23 1014.65 1014.66 1014.76 1014.71 1014.62 1014.58 1015.10 1015.20 1014.93 1014.21 1012.73 1011.82 1012.09 1012.30 1012.74 1013.09 1013.38 1013.93 1014.22
1012.03 1011.59 1011.87 1011.72 1011.01 1010.45 1011.52 1012.35 1012.83 1013.22 1013.19 1013.23 1013.02 1013.16 1013.08 1012.95 1013.42 1013.98 1015.11 1016.91 1017.36 1017.31 1017.58 1017.43 1016.60 1015.78 1015.49 1015.58 1015.32 1015.08 1014.75 1015.10 1015.45 1015.87 1015.68 1015.39 1013.56 1012.57 1012.77 1013.04 1013.22 1013.57 1013.83 1014.09 1014.38
1012.08 1011.34 1011.57 1011.60 1010.94 1010.79 1010.93 1011.77 1013.01 1013.84 1013.79 1013.82 1013.65 1013.80 1013.68 1013.67 1014.12 1014.66 1015.69 1017.25 1017.88 1018.00 1018.35 1018.16 1017.20 1016.47 1016.01 1015.55 1015.43 1015.28 1015.03 1015.18 1015.79 1016.08 1015.27 1014.88 1013.55 1013.21 1013.27 1013.51 1013.78 1014.02 1014.15 1014.54 1014.75
1012.22 1011.49 1011.76 1011.05 1010.78 1010.81 1011.13 1011.74 1012.64 1013.64 1014.11 1014.18 1014.17 1014.16 1014.02 1014.04 1014.52 1015.02 1015.76 1017.39 1018.13 1018.51 1018.55 1018.41 1017.81 1016.95 1016.27 1015.77 1015.49 1015.29 1015.20 1015.29 1015.52 1015.35 1015.58 1014.66 1014.55 1013.93 1013.87 1013.93 1013.99 1014.07 1014.27 1014.57 1014.93
1012.48 1011.96 1011.82 1011.44 1011.19 1011.03 1011.88 1011.94 1012.36 1013.38 1013.81 1014.10 1014.32 1014.37 1014.76 1014.88 1015.33 1015.52 1016.06 1016.65 1017.19 1018.55 1018.51 1018.55 1018.23 1017.72 1016.96 1015.80 1015.96 1015.55 1014.98 1014.99 1015.11 1015.15 1014.96 1014.69 1014.22 1014.13 1014.03 1014.10 1014.30 1014.50 1014.70 1014.96 1015.15
1012.72 1012.45 1012.29 1011.90 1011.46 1011.35 1011.58 1012.05 1012.64 1013.56 1014.59 1014.55 1014.64 1014.96 1015.52 1016.21 1016.33 1016.58 1016.78 1017.03 1017.38 1017.77 1018.42 1018.66 1018.85 1018.58 1017.73 1016.98 1016.42 1015.43 1014.30 1014.27 1014.46 1014.34 1014.44 1014.55 1014.29 1014.02 1014.36 1014.73 1014.85 1014.93 1015.05 1015.21 1015.44
Thickness
5568 5574 5583 5594 5603 5615 5626 5637 5647 5658 5671 5682 5692 5701 5711 5721 5734 5745 5752 5759 5768 5775 5781 5790 5795 5797 5799 5792 5796 5798 5763 5748 5761 5764 5761 5780 5774 5780 5780 5764 5761 5759 5753 5758 5769
5560 5564 5571 5582 5594 5608 5619 5630 5641 5653 5667 5680 5690 5699 5708 5717 5729 5742 5754 5762 5766 5772 5780 5780 5782 5788 5782 5784 5786 5776 5755 5754 5772 5772 5766 5770 5767 5766 5765 5759 5750 5748 5755 5759 5761
5552 5555 5562 5573 5588 5602 5614 5625 5638 5650 5664 5677 5687 5698 5705 5714 5725 5741 5753 5760 5765 5770 5778 5782 5783 5781 5774 5780 5778 5774 5751 5762 5765 5767 5768 5767 5759 5761 5756 5738 5740 5736 5742 5748 5749
5545 5549 5558 5568 5583 5598 5610 5623 5636 5647 5661 5675 5686 5696 5704 5714 5710 5742 5752 5759 5764 5770 5775 5776 5776 5769 5767 5764 5776 5753 5762 5766 5762 5762 5761 5759 5761 5744 5742 5737 5742 5741 5744 5744 5739
5542 5546 5554 5566 5581 5596 5609 5623 5636 5648 5660 5674 5684 5694 5707 5712 5727 5748 5753 5759 5765 5770 5768 5767 5766 5768 5757 5769 5768 5759 5758 5759 5758 5758 5757 5758 5748 5739 5731 5737 5739 5738 5738 5736 5734
5543 5549 5556 5567 5582 5597 5611 5625 5637 5649 5661 5674 5684 5692 5702 5707 5741 5747 5752 5757 5761 5765 5765 5768 5764 5768 5763 5761 5756 5763 5759 5754 5753 5750 5750 5741 5736 5738 5732 5736 5734 5733 5729 5729 5728
5550 5554 5561 5573 5587 5601 5613 5626 5640 5651 5664 5676 5683 5694 5709 5716 5740 5745 5751 5752 5758 5761 5756 5762 5765 5759 5763 5753 5760 5757 5742 5746 5747 5748 5744 5746 5728 5728 5734 5733 5729 5728 5724 5723 5722
5559 5563 5572 5583 5595 5606 5617 5631 5644 5655 5668 5678 5685 5695 5709 5732 5739 5744 5750 5749 5757 5760 5758 5762 5764 5760 5753 5758 5751 5742 5742 5721 5748 5747 5743 5736 5721 5738 5733 5728 5724 5724 5719 5717 5718
5572 5577 5584 5593 5602 5612 5624 5638 5649 5660 5671 5680 5689 5701 5705 5731 5731 5741 5746 5742 5748 5753 5755 5760 5757 5748 5746 5733 5729 5738 5719 5728 5727 5748 5740 5728 5724 5731 5729 5725 5722 5721 5717 5713 5711
5586 5590 5595 5602 5610 5621 5634 5643 5656 5666 5677 5687 5700 5698 5715 5717 5729 5735 5744 5744 5740 5742 5741 5741 5740 5730 5732 5726 5703 5721 5725 5737 5733 5733 5736 5726 5721 5725 5725 5722 5718 5716 5714 5711 5706
5599 5602 5606 5613 5621 5632 5638 5651 5661 5666 5686 5692 5703 5709 5715 5724 5732 5731 5738 5736 5737 5732 5721 5734 5718 5712 5733 5739 5735 5729 5724 5722 5735 5731 5724 5719 5722 5731 5725 5717 5712 5710 5710 5707 5704
5611 5616 5620 5626 5634 5638 5643 5669 5674 5683 5679 5700 5707 5712 5721 5727 5715 5724 5737 5722 5724 5715 5731 5720 5706 5731 5735 5733 5725 5723 5718 5719 5731 5728 5718 5714 5720 5733 5727 5716 5711 5708 5706 5703 5701
5624 5627 5631 5637 5640 5645 5664 5679 5688 5695 5689 5693 5708 5710 5711 5719 5715 5714 5725 5726 5720 5718 5722 5712 5722 5730 5725 5722 5714 5717 5710 5713 5708 5718 5721 5710 5710 5729 5731 5720 5712 5710 5706 5704 5697
5636 5639 5641 5642 5643 5671 5675 5686 5692 5699 5684 5681 5695 5706 5713 5718 5705 5719 5722 5716 5719 5713 5722 5717 5723 5718 5714 5709 5719 5699 5711 5709 5703 5694 5681 5711 5677 5726 5720 5706 5704 5701 5698 5696 5693
5645 5646 5647 5649 5661 5674 5680 5689 5696 5696 5665 5692 5696 5717 5715 5707 5705 5706 5719 5715 5706 5713 5709 5705 5712 5707 5701 5708 5712 5695 5701 5697 5693 5683 5680 5693 5674 5712 5713 5696 5696 5696 5693 5691 5688
5649 5650 5653 5658 5667 5680 5686 5691 5692 5672 5664 5682 5697 5695 5696 5704 5705 5707 5710 5715 5712 5704 5710 5704 5712 5707 5702 5704 5701 5699 5691 5691 5688 5676 5656 5696 5685 5692 5696 5704 5701 5697 5691 5686 5680
5654 5656 5658 5670 5676 5684 5688 5688 5671 5667 5695 5679 5688 5695 5697 5697 5699 5700 5700 5696 5689 5684 5687 5703 5700 5699 5696 5688 5692 5687 5676 5661 5654 5652 5664 5701 5684 5699 5707 5708 5708 5698 5689 5683 5676
5659 5661 5671 5677 5681 5686 5688 5679 5663 5693 5688 5695 5693 5693 5689 5699 5694 5695 5692 5686 5690 5686 5680 5684 5674 5689 5692 5686 5675 5682 5677 5658 5650 5658 5668 5687 5665 5693 5702 5702 5702 5700 5685 5676 5666
5663 5670 5680 5682 5684 5688 5681 5668 5670 5686 5691 5688 5686 5683 5686 5689 5685 5687 5689 5684 5675 5674 5667 5676 5669 5679 5681 5682 5677 5676 5660 5672 5659 5674 5660 5682 5692 5687 5687 5681 5683 5677 5669 5661 5654
5669 5679 5680 5684 5685 5684 5676 5677 5678 5680 5684 5685 5679 5690 5686 5685 5675 5682 5685 5670 5667 5664 5666 5670 5657 5675 5668 5671 5672 5663 5666 5651 5649 5640 5645 5677 5676 5656 5663 5660 5662 5657 5650 5645 5641
5668 5675 5680 5685 5686 5680 5670 5670 5672 5673 5677 5674 5678 5680 5682 5681 5679 5681 5674 5658 5661 5659 5660 5662 5662 5657 5661 5657 5665 5652 5652 5652 5649 5645 5632 5629 5652 5680 5668 5663 5649 5647 5643 5638 5631
5676 5668 5682 5685 5668 5683 5678 5674 5658 5667 5670 5671 5671 5672 5673 5673 5672 5671 5668 5655 5649 5652 5655 5648 5644 5647 5664 5660 5659 5657 5655 5658 5633 5637 5635 5621 5630 5669 5657 5650 5640 5631 5632 5627 5619
5674 5673 5680 5680 5665 5676 5668 5661 5664 5661 5664 5663 5664 5663 5665 5664 5655 5660 5656 5639 5640 5643 5637 5637 5642 5632 5637 5641 5647 5643 5653 5647 5639 5623 5614 5596 5622 5653 5640 5632 5628 5624 5623 5617 5613
5674 5665 5671 5673 5679 5673 5671 5666 5654 5653 5656 5658 5658 5657 5655 5654 5655 5649 5646 5633 5631 5635 5627 5626 5635 5635 5624 5634 5639 5634 5642 5641 5628 5597 5616 5613 5629 5634 5629 5615 5609 5604 5599 5590 5585
5672 5668 5665 5666 5670 5673 5672 5668 5658 5648 5651 5653 5649 5650 5652 5650 5647 5644 5645 5627 5625 5622 5624 5622 5621 5630 5633 5635 5634 5630 5628 5625 5615 5617 5598 5615 5606 5617 5612 5609 5608 5605 5599 5592 5583
5663 5666 5667 5667 5670 5670 5654 5660 5660 5650 5652 5648 5645 5651 5648 5644 5638 5640 5640 5636 5635 5616 5619 5616 5611 5616 5613 5633 5619 5614 5619 5616 5613 5611 5608 5606 5603 5603 5609 5603 5597 5591 5581 5574 5567
5665 5666 5661 5651 5663 5662 5660 5658 5655 5650 5641 5645 5646 5643 5638 5630 5631 5628 5627 5625 5622 5620 5610 5608 5599 5594 5596 5613 5608 5601 5621 5621 5613 5615 5606 5590 5598 5602 5591 5585 5580 5574 5569 5563 5556